Time,TemperatureF,DewpointF,PressureIn,WindDirection,WindDirectionDegrees,WindSpeedMPH,WindSpeedGustMPH,Humidity,HourlyPrecipIn,Conditions,Clouds,dailyrainin,SoftwareType,DateUTC
2013-08-16 00:00:00,59.3,53.8,30.13,WSW,248,0.0,0.0,82,0.00,,---,0.00,VWS V14.00,2013-08-16 04:00:00,
2013-08-16 00:03:00,58.8,53.3,30.13,WSW,248,0.0,0.0,82,0.00,,---,0.00,VWS V14.00,2013-08-16 04:03:00,
2013-08-16 00:08:00,58.5,53.4,30.13,WSW,248,0.0,0.0,83,0.00,,---,0.00,VWS V14.00,2013-08-16 04:08:00,
2013-08-16 00:13:00,58.4,53.3,30.13,WSW,248,0.0,0.0,83,0.00,,---,0.00,VWS V14.00,2013-08-16 04:13:00,
2013-08-16 00:18:00,58.1,53.0,30.13,WSW,248,0.0,0.0,83,0.00,,---,0.00,VWS V14.00,2013-08-16 04:18:00,
2013-08-16 00:23:00,57.8,53.0,30.13,WSW,248,0.0,0.0,84,0.00,,---,0.00,VWS V14.00,2013-08-16 04:23:00,
2013-08-16 00:29:00,57.6,52.8,30.13,WSW,248,0.0,0.0,84,0.00,,---,0.00,VWS V14.00,2013-08-16 04:29:00,
2013-08-16 00:30:00,57.7,52.9,30.13,WSW,248,0.0,0.0,84,0.00,,---,0.00,VWS V14.00,2013-08-16 04:30:00,
2013-08-16 00:34:00,57.2,52.7,30.13,WSW,248,0.0,0.0,85,0.00,,---,0.00,VWS V14.00,2013-08-16 04:34:00,
2013-08-16 00:39:00,56.9,52.4,30.13,WSW,248,0.0,0.0,85,0.00,,---,0.00,VWS V14.00,2013-08-16 04:39:00,
2013-08-16 00:44:00,56.6,52.5,30.13,WSW,248,0.0,0.0,86,0.00,,---,0.00,VWS V14.00,2013-08-16 04:44:00,
2013-08-16 00:49:00,56.4,52.3,30.13,WSW,248,0.0,0.0,86,0.00,,---,0.00,VWS V14.00,2013-08-16 04:49:00,
2013-08-16 00:54:00,56.2,52.1,30.13,WSW,248,0.0,0.0,86,0.00,,---,0.00,VWS V14.00,2013-08-16 04:54:00,
2013-08-16 00:59:00,56.1,52.0,30.13,WSW,248,0.0,0.0,86,0.00,,---,0.00,VWS V14.00,2013-08-16 04:59:00,
2013-08-16 01:00:00,56.1,52.0,30.13,WSW,248,0.0,1.0,86,0.00,,---,0.00,VWS V14.00,2013-08-16 05:00:00,
2013-08-16 01:04:00,55.9,51.8,30.13,WSW,248,0.0,0.0,86,0.00,,---,0.00,VWS V14.00,2013-08-16 05:04:00,
2013-08-16 01:09:00,55.7,51.6,30.13,WSW,248,0.0,0.0,86,0.00,,---,0.00,VWS V14.00,2013-08-16 05:09:00,
2013-08-16 01:14:00,55.5,51.1,30.13,WSW,248,0.0,0.0,85,0.00,,---,0.00,VWS V14.00,2013-08-16 05:14:00,
2013-08-16 01:24:00,55.2,50.8,30.13,WSW,248,0.0,0.0,85,0.00,,---,0.00,VWS V14.00,2013-08-16 05:24:00,
2013-08-16 01:29:00,55.0,50.9,30.13,WSW,248,0.0,0.0,86,0.00,,---,0.00,VWS V14.00,2013-08-16 05:29:00,
2013-08-16 01:30:00,55.1,51.0,30.13,WSW,248,0.0,0.0,86,0.00,,---,0.00,VWS V14.00,2013-08-16 05:30:00,
2013-08-16 01:34:00,55.0,50.9,30.13,WSW,248,0.0,0.0,86,0.00,,---,0.00,VWS V14.00,2013-08-16 05:34:00,
2013-08-16 01:39:00,54.8,50.7,30.13,WSW,248,0.0,1.0,86,0.00,,---,0.00,VWS V14.00,2013-08-16 05:39:00,
2013-08-16 01:44:00,54.7,50.6,30.13,WSW,248,0.0,1.0,86,0.00,,---,0.00,VWS V14.00,2013-08-16 05:44:00,
2013-08-16 01:49:00,54.5,50.4,30.13,WSW,248,0.0,1.0,86,0.00,,---,0.00,VWS V14.00,2013-08-16 05:49:00,
2013-08-16 01:54:00,54.3,50.5,30.13,WSW,248,0.0,1.0,87,0.00,,---,0.00,VWS V14.00,2013-08-16 05:54:00,
2013-08-16 01:59:00,54.2,50.4,30.13,WSW,248,0.0,0.0,87,0.00,,---,0.00,VWS V14.00,2013-08-16 05:59:00,
2013-08-16 02:00:00,54.2,50.4,30.13,WSW,248,0.0,1.0,87,0.00,,---,0.00,VWS V14.00,2013-08-16 06:00:00,
2013-08-16 02:04:00,54.0,50.2,30.13,WSW,248,0.0,1.0,87,0.00,,---,0.00,VWS V14.00,2013-08-16 06:04:00,
2013-08-16 02:09:00,53.8,50.0,30.14,WSW,248,0.0,1.0,87,0.00,,---,0.00,VWS V14.00,2013-08-16 06:09:00,
2013-08-16 02:14:00,53.7,50.2,30.14,WSW,248,0.0,1.0,88,0.00,,---,0.00,VWS V14.00,2013-08-16 06:14:00,
2013-08-16 02:19:00,53.6,50.1,30.14,WSW,248,0.0,1.0,88,0.00,,---,0.00,VWS V14.00,2013-08-16 06:19:00,
2013-08-16 02:24:00,53.5,50.0,30.14,WSW,248,0.0,1.0,88,0.00,,---,0.00,VWS V14.00,2013-08-16 06:24:00,
2013-08-16 02:29:00,53.4,49.9,30.14,WSW,248,0.0,0.0,88,0.00,,---,0.00,VWS V14.00,2013-08-16 06:29:00,
2013-08-16 02:30:00,53.5,50.0,30.14,WSW,248,0.0,1.0,88,0.00,,---,0.00,VWS V14.00,2013-08-16 06:30:00,
2013-08-16 02:34:00,53.4,50.2,30.14,WSW,248,0.0,1.0,89,0.00,,---,0.00,VWS V14.00,2013-08-16 06:34:00,
2013-08-16 02:39:00,53.5,50.0,30.14,WSW,248,0.0,1.0,88,0.00,,---,0.00,VWS V14.00,2013-08-16 06:39:00,
2013-08-16 02:44:00,53.5,50.0,30.14,WNW,288,1.0,5.0,88,0.00,,---,0.00,VWS V14.00,2013-08-16 06:44:00,
2013-08-16 02:49:00,53.6,49.8,30.15,WNW,288,4.0,5.0,87,0.00,,---,0.00,VWS V14.00,2013-08-16 06:49:00,
2013-08-16 02:54:00,53.4,49.3,30.15,WNW,288,1.0,5.0,86,0.00,,---,0.00,VWS V14.00,2013-08-16 06:54:00,
2013-08-16 02:59:00,53.2,49.4,30.15,WNW,288,0.0,3.0,87,0.00,,---,0.00,VWS V14.00,2013-08-16 06:59:00,
2013-08-16 03:00:00,53.3,49.5,30.15,WNW,288,0.0,5.0,87,0.00,,---,0.00,VWS V14.00,2013-08-16 07:00:00,
2013-08-16 03:04:00,53.2,49.4,30.15,WNW,288,0.0,3.0,87,0.00,,---,0.00,VWS V14.00,2013-08-16 07:04:00,
2013-08-16 03:09:00,53.0,49.2,30.15,WNW,288,0.0,3.0,87,0.00,,---,0.00,VWS V14.00,2013-08-16 07:09:00,
2013-08-16 03:14:00,53.0,49.2,30.15,WNW,289,0.0,3.0,87,0.00,,---,0.00,VWS V14.00,2013-08-16 07:14:00,
2013-08-16 03:19:00,53.0,49.2,30.15,WNW,289,0.0,3.0,87,0.00,,---,0.00,VWS V14.00,2013-08-16 07:19:00,
2013-08-16 03:24:00,53.1,49.3,30.15,WNW,288,0.0,3.0,87,0.00,,---,0.00,VWS V14.00,2013-08-16 07:24:00,
2013-08-16 03:29:00,53.1,49.3,30.15,WNW,288,0.0,0.0,87,0.00,,---,0.00,VWS V14.00,2013-08-16 07:29:00,
2013-08-16 03:30:00,53.1,49.3,30.15,WNW,289,0.0,3.0,87,0.00,,---,0.00,VWS V14.00,2013-08-16 07:30:00,
2013-08-16 03:34:00,53.2,49.4,30.15,WNW,289,0.0,1.0,87,0.00,,---,0.00,VWS V14.00,2013-08-16 07:34:00,
2013-08-16 03:39:00,53.2,49.4,30.15,WNW,288,0.0,1.0,87,0.00,,---,0.00,VWS V14.00,2013-08-16 07:39:00,
2013-08-16 03:44:00,53.2,49.4,30.15,WNW,289,0.0,1.0,87,0.00,,---,0.00,VWS V14.00,2013-08-16 07:44:00,
2013-08-16 03:49:00,53.3,49.5,30.15,WNW,289,0.0,2.0,87,0.00,,---,0.00,VWS V14.00,2013-08-16 07:49:00,
2013-08-16 03:54:00,53.4,49.6,30.15,WNW,288,0.0,2.0,87,0.00,,---,0.00,VWS V14.00,2013-08-16 07:54:00,
2013-08-16 03:59:00,53.5,49.4,30.15,WNW,288,0.0,1.0,86,0.00,,---,0.00,VWS V14.00,2013-08-16 07:59:00,
2013-08-16 04:00:00,53.5,49.7,30.15,WNW,288,0.0,2.0,87,0.00,,---,0.00,VWS V14.00,2013-08-16 08:00:00,
2013-08-16 04:04:00,53.6,49.5,30.15,WNW,288,0.0,2.0,86,0.00,,---,0.00,VWS V14.00,2013-08-16 08:04:00,
2013-08-16 04:09:00,53.6,49.5,30.15,WNW,288,0.0,2.0,86,0.00,,---,0.00,VWS V14.00,2013-08-16 08:09:00,
2013-08-16 04:14:00,53.4,49.3,30.15,WNW,288,0.0,2.0,86,0.00,,---,0.00,VWS V14.00,2013-08-16 08:14:00,
2013-08-16 04:19:00,53.3,49.2,30.15,WNW,288,0.0,2.0,86,0.00,,---,0.00,VWS V14.00,2013-08-16 08:19:00,
2013-08-16 04:24:00,53.1,49.0,30.15,WNW,288,0.0,2.0,86,0.00,,---,0.00,VWS V14.00,2013-08-16 08:24:00,
2013-08-16 04:29:00,52.9,49.1,30.15,WNW,289,1.0,1.0,87,0.00,,---,0.00,VWS V14.00,2013-08-16 08:29:00,
2013-08-16 04:34:00,52.7,49.0,30.15,WNW,288,0.0,1.0,87,0.00,,---,0.00,VWS V14.00,2013-08-16 08:34:00,
2013-08-16 04:39:00,52.6,48.8,30.15,WNW,289,0.0,2.0,87,0.00,,---,0.00,VWS V14.00,2013-08-16 08:39:00,
2013-08-16 04:44:00,52.5,49.0,30.15,WNW,289,0.0,2.0,88,0.00,,---,0.00,VWS V14.00,2013-08-16 08:44:00,
2013-08-16 04:49:00,52.5,49.0,30.15,WNW,288,0.0,2.0,88,0.00,,---,0.00,VWS V14.00,2013-08-16 08:49:00,
2013-08-16 04:54:00,52.4,49.0,30.15,WNW,288,0.0,2.0,88,0.00,,---,0.00,VWS V14.00,2013-08-16 08:54:00,
2013-08-16 04:59:00,52.3,48.9,30.15,WNW,288,0.0,0.0,88,0.00,,---,0.00,VWS V14.00,2013-08-16 08:59:00,
2013-08-16 05:00:00,52.4,49.0,30.15,WNW,288,0.0,2.0,88,0.00,,---,0.00,VWS V14.00,2013-08-16 09:00:00,
2013-08-16 05:04:00,52.1,48.7,30.16,WNW,288,0.0,1.0,88,0.00,,---,0.00,VWS V14.00,2013-08-16 09:04:00,
2013-08-16 05:10:00,52.1,48.7,30.16,WNW,288,0.0,1.0,88,0.00,,---,0.00,VWS V14.00,2013-08-16 09:10:00,
2013-08-16 05:15:00,52.0,48.6,30.16,WNW,289,0.0,1.0,88,0.00,,---,0.00,VWS V14.00,2013-08-16 09:15:00,
2013-08-16 05:20:00,51.9,48.5,30.16,WNW,288,0.0,1.0,88,0.00,,---,0.00,VWS V14.00,2013-08-16 09:20:00,
2013-08-16 05:25:00,51.8,48.7,30.16,WNW,288,0.0,1.0,89,0.00,,---,0.00,VWS V14.00,2013-08-16 09:25:00,
2013-08-16 05:30:00,51.8,48.7,30.16,WNW,288,0.0,1.0,89,0.00,,---,0.00,VWS V14.00,2013-08-16 09:30:00,
2013-08-16 05:35:00,51.8,48.7,30.16,WNW,288,0.0,1.0,89,0.00,,---,0.00,VWS V14.00,2013-08-16 09:35:00,
2013-08-16 05:40:00,51.7,48.6,30.16,WNW,288,0.0,1.0,89,0.00,,---,0.00,VWS V14.00,2013-08-16 09:40:00,
2013-08-16 05:45:00,51.6,48.5,30.16,WNW,288,0.0,1.0,89,0.00,,---,0.00,VWS V14.00,2013-08-16 09:45:00,
2013-08-16 05:50:00,51.5,48.4,30.17,WNW,288,0.0,1.0,89,0.00,,---,0.00,VWS V14.00,2013-08-16 09:50:00,
2013-08-16 05:55:00,51.5,48.4,30.16,WNW,288,0.0,1.0,89,0.00,,---,0.00,VWS V14.00,2013-08-16 09:55:00,
2013-08-16 06:00:00,51.4,48.3,30.17,WNW,288,0.0,1.0,89,0.00,,---,0.00,VWS V14.00,2013-08-16 10:00:00,
2013-08-16 06:05:00,51.4,48.6,30.17,WNW,288,0.0,1.0,90,0.00,,---,0.00,VWS V14.00,2013-08-16 10:05:00,
2013-08-16 06:10:00,51.3,48.2,30.17,WNW,288,0.0,1.0,89,0.00,,---,0.00,VWS V14.00,2013-08-16 10:10:00,
2013-08-16 06:15:00,51.3,48.2,30.17,WNW,288,0.0,1.0,89,0.00,,---,0.00,VWS V14.00,2013-08-16 10:15:00,
2013-08-16 06:20:00,51.2,48.4,30.17,WNW,288,0.0,1.0,90,0.00,,---,0.00,VWS V14.00,2013-08-16 10:20:00,
2013-08-16 06:25:00,51.3,48.5,30.17,WNW,288,0.0,1.0,90,0.00,,---,0.00,VWS V14.00,2013-08-16 10:25:00,
2013-08-16 06:30:00,51.3,48.5,30.17,WNW,289,0.0,0.0,90,0.00,,---,0.00,VWS V14.00,2013-08-16 10:30:00,
2013-08-16 06:35:00,51.2,48.4,30.17,WNW,288,0.0,0.0,90,0.00,,---,0.00,VWS V14.00,2013-08-16 10:35:00,
2013-08-16 06:40:00,51.2,48.4,30.17,WNW,288,0.0,0.0,90,0.00,,---,0.00,VWS V14.00,2013-08-16 10:40:00,
2013-08-16 06:45:00,51.1,48.3,30.17,WNW,288,0.0,0.0,90,0.00,,---,0.00,VWS V14.00,2013-08-16 10:45:00,
2013-08-16 06:50:00,51.0,48.2,30.17,WNW,289,0.0,1.0,90,0.00,,---,0.00,VWS V14.00,2013-08-16 10:50:00,
2013-08-16 06:55:00,51.0,48.2,30.18,WNW,288,0.0,1.0,90,0.00,,---,0.00,VWS V14.00,2013-08-16 10:55:00,
2013-08-16 07:00:00,50.9,48.1,30.18,WNW,288,0.0,0.0,90,0.00,,---,0.00,VWS V14.00,2013-08-16 11:00:00,
2013-08-16 07:05:00,50.8,48.0,30.18,WNW,288,0.0,1.0,90,0.00,,---,0.00,VWS V14.00,2013-08-16 11:05:00,
2013-08-16 07:10:00,50.9,48.4,30.18,WNW,288,0.0,1.0,91,0.00,,---,0.00,VWS V14.00,2013-08-16 11:10:00,
2013-08-16 07:15:00,51.0,48.5,30.18,WNW,288,0.0,1.0,91,0.00,,---,0.00,VWS V14.00,2013-08-16 11:15:00,
2013-08-16 07:20:00,51.1,48.6,30.18,WNW,289,0.0,1.0,91,0.00,,---,0.00,VWS V14.00,2013-08-16 11:20:00,
2013-08-16 07:25:00,51.2,48.7,30.18,WNW,288,0.0,1.0,91,0.00,,---,0.00,VWS V14.00,2013-08-16 11:25:00,
2013-08-16 07:30:00,51.4,48.9,30.18,WNW,288,0.0,0.0,91,0.00,,---,0.00,VWS V14.00,2013-08-16 11:30:00,
2013-08-16 07:35:00,51.6,49.1,30.18,WNW,288,0.0,0.0,91,0.00,,---,0.00,VWS V14.00,2013-08-16 11:35:00,
2013-08-16 07:40:00,51.9,49.4,30.18,WNW,288,0.0,0.0,91,0.00,,---,0.00,VWS V14.00,2013-08-16 11:40:00,
2013-08-16 07:45:00,52.3,49.5,30.18,WNW,289,0.0,0.0,90,0.00,,---,0.00,VWS V14.00,2013-08-16 11:45:00,
2013-08-16 07:50:00,52.8,50.0,30.19,WNW,288,0.0,0.0,90,0.00,,---,0.00,VWS V14.00,2013-08-16 11:50:00,
2013-08-16 07:55:00,53.3,50.2,30.19,WNW,289,0.0,1.0,89,0.00,,---,0.00,VWS V14.00,2013-08-16 11:55:00,
2013-08-16 08:00:00,53.8,50.6,30.19,WNW,289,0.0,1.0,89,0.00,,---,0.00,VWS V14.00,2013-08-16 12:00:00,
2013-08-16 08:05:00,54.4,50.9,30.19,WNW,288,0.0,1.0,88,0.00,,---,0.00,VWS V14.00,2013-08-16 12:05:00,
2013-08-16 08:10:00,54.9,51.1,30.19,WNW,289,0.0,2.0,87,0.00,,---,0.00,VWS V14.00,2013-08-16 12:10:00,
2013-08-16 08:15:00,55.4,51.6,30.19,WNW,288,0.0,2.0,87,0.00,,---,0.00,VWS V14.00,2013-08-16 12:15:00,
2013-08-16 08:20:00,55.9,51.8,30.19,WNW,288,1.0,3.0,86,0.00,,---,0.00,VWS V14.00,2013-08-16 12:20:00,
2013-08-16 08:25:00,56.4,52.0,30.19,WNW,288,0.0,3.0,85,0.00,,---,0.00,VWS V14.00,2013-08-16 12:25:00,
2013-08-16 08:30:00,56.8,52.3,30.20,WNW,288,1.0,2.0,85,0.00,,---,0.00,VWS V14.00,2013-08-16 12:30:00,
2013-08-16 08:35:00,57.0,52.9,30.20,WNW,288,0.0,3.0,86,0.00,,---,0.00,VWS V14.00,2013-08-16 12:35:00,
2013-08-16 08:40:00,57.5,53.3,30.20,WNW,288,0.0,3.0,86,0.00,,---,0.00,VWS V14.00,2013-08-16 12:40:00,
2013-08-16 08:45:00,58.1,53.6,30.20,WNW,289,3.0,3.0,85,0.00,,---,0.00,VWS V14.00,2013-08-16 12:45:00,
2013-08-16 08:50:00,58.5,54.0,30.20,WNW,288,0.0,4.0,85,0.00,,---,0.00,VWS V14.00,2013-08-16 12:50:00,
2013-08-16 08:55:00,59.0,54.2,30.20,WNW,288,0.0,4.0,84,0.00,,---,0.00,VWS V14.00,2013-08-16 12:55:00,
2013-08-16 09:00:00,59.5,54.7,30.20,WNW,288,0.0,2.0,84,0.00,,---,0.00,VWS V14.00,2013-08-16 13:00:00,
2013-08-16 09:05:00,60.1,54.9,30.20,WNW,289,2.0,2.0,83,0.00,,---,0.00,VWS V14.00,2013-08-16 13:05:00,
2013-08-16 09:10:00,60.7,55.2,30.20,WNW,289,1.0,4.0,82,0.00,,---,0.00,VWS V14.00,2013-08-16 13:10:00,
2013-08-16 09:15:00,61.3,55.8,30.20,WNW,288,3.0,4.0,82,0.00,,---,0.00,VWS V14.00,2013-08-16 13:15:00,
2013-08-16 09:20:00,61.9,56.0,30.20,WNW,289,0.0,4.0,81,0.00,,---,0.00,VWS V14.00,2013-08-16 13:20:00,
2013-08-16 09:25:00,62.6,56.0,30.20,WNW,289,1.0,4.0,79,0.00,,---,0.00,VWS V14.00,2013-08-16 13:25:00,
2013-08-16 09:30:00,63.1,56.1,30.20,WNW,289,1.0,2.0,78,0.00,,---,0.00,VWS V14.00,2013-08-16 13:30:00,
2013-08-16 09:35:00,63.8,56.5,30.20,WNW,290,2.0,4.0,77,0.00,,---,0.00,VWS V14.00,2013-08-16 13:35:00,
2013-08-16 09:40:00,64.3,56.6,30.20,WNW,290,3.0,4.0,76,0.00,,---,0.00,VWS V14.00,2013-08-16 13:40:00,
2013-08-16 09:45:00,64.9,56.0,30.20,WNW,297,2.0,4.0,73,0.00,,---,0.00,VWS V14.00,2013-08-16 13:45:00,
2013-08-16 09:50:00,65.4,56.2,30.21,WNW,298,0.0,4.0,72,0.00,,---,0.00,VWS V14.00,2013-08-16 13:50:00,
2013-08-16 09:55:00,65.8,56.5,30.20,WNW,298,0.0,4.0,72,0.00,,---,0.00,VWS V14.00,2013-08-16 13:55:00,
2013-08-16 10:00:00,66.3,56.2,30.21,WNW,302,0.0,4.0,70,0.00,,---,0.00,VWS V14.00,2013-08-16 14:00:00,
2013-08-16 10:05:00,66.8,56.7,30.20,WNW,302,1.0,4.0,70,0.00,,---,0.00,VWS V14.00,2013-08-16 14:05:00,
2013-08-16 10:10:00,67.5,56.6,30.20,WNW,301,2.0,4.0,68,0.00,,---,0.00,VWS V14.00,2013-08-16 14:10:00,
2013-08-16 10:16:00,68.1,57.2,30.20,WNW,302,0.0,4.0,68,0.00,,---,0.00,VWS V14.00,2013-08-16 14:16:00,
2013-08-16 10:21:00,69.0,57.6,30.21,WNW,302,0.0,4.0,67,0.00,,---,0.00,VWS V14.00,2013-08-16 14:21:00,
2013-08-16 10:26:00,69.4,56.3,30.21,WNW,302,0.0,4.0,63,0.00,,---,0.00,VWS V14.00,2013-08-16 14:26:00,
2013-08-16 10:30:00,69.5,56.4,30.21,WNW,302,0.0,4.0,63,0.00,,---,0.00,VWS V14.00,2013-08-16 14:30:00,
2013-08-16 10:31:00,70.0,56.0,30.21,WNW,302,0.0,2.0,61,0.00,,---,0.00,VWS V14.00,2013-08-16 14:31:00,
2013-08-16 10:36:00,71.1,56.5,30.21,WNW,302,0.0,2.0,60,0.00,,---,0.00,VWS V14.00,2013-08-16 14:36:00,
2013-08-16 10:41:00,72.1,56.0,30.21,WNW,302,0.0,3.0,57,0.00,,---,0.00,VWS V14.00,2013-08-16 14:41:00,
2013-08-16 10:46:00,72.5,55.9,30.21,WNW,302,0.0,3.0,56,0.00,,---,0.00,VWS V14.00,2013-08-16 14:46:00,
2013-08-16 10:51:00,72.6,55.5,30.21,NNE,24,0.0,3.0,55,0.00,,---,0.00,VWS V14.00,2013-08-16 14:51:00,
2013-08-16 10:56:00,73.2,56.6,30.21,NNE,24,0.0,3.0,56,0.00,,---,0.00,VWS V14.00,2013-08-16 14:56:00,
2013-08-16 11:00:00,73.3,56.7,30.21,NE,42,4.0,4.0,56,0.00,,---,0.00,VWS V14.00,2013-08-16 15:00:00,
2013-08-16 11:01:00,72.9,54.8,30.21,NE,53,0.0,4.0,53,0.00,,---,0.00,VWS V14.00,2013-08-16 15:01:00,
2013-08-16 11:06:00,72.6,55.0,30.21,NE,53,0.0,4.0,54,0.00,,---,0.00,VWS V14.00,2013-08-16 15:06:00,
2013-08-16 11:11:00,73.1,52.8,30.21,NE,53,0.0,4.0,49,0.00,,---,0.00,VWS V14.00,2013-08-16 15:11:00,
2013-08-16 11:16:00,73.6,54.4,30.21,NE,54,0.0,4.0,51,0.00,,---,0.00,VWS V14.00,2013-08-16 15:16:00,
2013-08-16 11:21:00,74.2,54.4,30.21,NE,54,1.0,4.0,50,0.00,,---,0.00,VWS V14.00,2013-08-16 15:21:00,
2013-08-16 11:26:00,74.4,53.5,30.21,NE,53,1.0,4.0,48,0.00,,---,0.00,VWS V14.00,2013-08-16 15:26:00,
2013-08-16 11:30:00,74.4,54.0,30.21,NE,53,0.0,4.0,49,0.00,,---,0.00,VWS V14.00,2013-08-16 15:30:00,
2013-08-16 11:31:00,74.6,54.2,30.21,NE,53,0.0,2.0,49,0.00,,---,0.00,VWS V14.00,2013-08-16 15:31:00,
2013-08-16 11:36:00,75.5,52.1,30.21,NE,56,0.0,3.0,44,0.00,,---,0.00,VWS V14.00,2013-08-16 15:36:00,
2013-08-16 11:41:00,76.2,52.7,30.21,NE,35,0.0,4.0,44,0.00,,---,0.00,VWS V14.00,2013-08-16 15:41:00,
2013-08-16 11:46:00,75.7,53.5,30.20,NE,43,1.0,4.0,46,0.00,,---,0.00,VWS V14.00,2013-08-16 15:46:00,
2013-08-16 11:51:00,75.7,53.5,30.20,NE,43,0.0,4.0,46,0.00,,---,0.00,VWS V14.00,2013-08-16 15:51:00,
2013-08-16 11:56:00,76.4,54.1,30.20,NE,43,0.0,4.0,46,0.00,,---,0.00,VWS V14.00,2013-08-16 15:56:00,
2013-08-16 12:00:00,76.6,54.3,30.20,NE,42,0.0,4.0,46,0.00,,---,0.00,VWS V14.00,2013-08-16 16:00:00,
2013-08-16 12:01:00,77.1,54.2,30.20,NE,43,3.0,3.0,45,0.00,,---,0.00,VWS V14.00,2013-08-16 16:01:00,
2013-08-16 12:06:00,76.7,53.8,30.21,NE,42,0.0,4.0,45,0.00,,---,0.00,VWS V14.00,2013-08-16 16:06:00,
2013-08-16 12:11:00,76.1,53.8,30.21,West,277,4.0,5.0,46,0.00,,---,0.00,VWS V14.00,2013-08-16 16:11:00,
2013-08-16 12:16:00,74.7,53.2,30.21,West,274,2.0,5.0,47,0.00,,---,0.00,VWS V14.00,2013-08-16 16:16:00,
2013-08-16 12:21:00,74.7,53.7,30.20,West,274,2.0,5.0,48,0.00,,---,0.00,VWS V14.00,2013-08-16 16:21:00,
2013-08-16 12:26:00,74.6,53.6,30.21,WSW,245,0.0,5.0,48,0.00,,---,0.00,VWS V14.00,2013-08-16 16:26:00,
2013-08-16 12:30:00,74.6,54.2,30.21,WSW,245,0.0,5.0,49,0.00,,---,0.00,VWS V14.00,2013-08-16 16:30:00,
2013-08-16 12:31:00,75.0,54.0,30.20,SW,233,0.0,4.0,48,0.00,,---,0.00,VWS V14.00,2013-08-16 16:31:00,
2013-08-16 12:36:00,75.2,53.6,30.20,SE,126,1.0,5.0,47,0.00,,---,0.00,VWS V14.00,2013-08-16 16:36:00,
2013-08-16 12:41:00,75.6,54.0,30.20,SE,126,0.0,5.0,47,0.00,,---,0.00,VWS V14.00,2013-08-16 16:41:00,
2013-08-16 12:46:00,75.8,53.6,30.20,ESE,111,0.0,5.0,46,0.00,,---,0.00,VWS V14.00,2013-08-16 16:46:00,
2013-08-16 12:51:00,76.0,53.8,30.20,South,175,1.0,5.0,46,0.00,,---,0.00,VWS V14.00,2013-08-16 16:51:00,
2013-08-16 12:56:00,76.0,53.8,30.20,WSW,248,3.0,5.0,46,0.00,,---,0.00,VWS V14.00,2013-08-16 16:56:00,
2013-08-16 13:00:00,75.9,53.7,30.20,WSW,248,2.0,5.0,46,0.00,,---,0.00,VWS V14.00,2013-08-16 17:00:00,
2013-08-16 13:01:00,75.8,54.2,30.20,WSW,257,0.0,4.0,47,0.00,,---,0.00,VWS V14.00,2013-08-16 17:01:00,
2013-08-16 13:06:00,76.5,54.8,30.20,WNW,302,0.0,4.0,47,0.00,,---,0.00,VWS V14.00,2013-08-16 17:06:00,
2013-08-16 13:11:00,76.9,54.0,30.20,SW,217,6.0,6.0,45,0.00,,---,0.00,VWS V14.00,2013-08-16 17:11:00,
2013-08-16 13:16:00,76.6,53.7,30.20,South,173,5.0,7.0,45,0.00,,---,0.00,VWS V14.00,2013-08-16 17:16:00,
2013-08-16 13:21:00,76.4,53.5,30.20,SSE,157,1.0,7.0,45,0.00,,---,0.00,VWS V14.00,2013-08-16 17:21:00,
2013-08-16 13:26:00,77.0,54.7,30.20,East,101,7.0,7.0,46,0.00,,---,0.00,VWS V14.00,2013-08-16 17:26:00,
2013-08-16 13:30:00,77.0,54.7,30.20,East,101,5.0,7.0,46,0.00,,---,0.00,VWS V14.00,2013-08-16 17:30:00,
2013-08-16 13:31:00,77.1,54.8,30.20,East,98,2.0,5.0,46,0.00,,---,0.00,VWS V14.00,2013-08-16 17:31:00,
2013-08-16 13:36:00,77.2,54.2,30.20,East,98,0.0,6.0,45,0.00,,---,0.00,VWS V14.00,2013-08-16 17:36:00,
2013-08-16 13:41:00,77.9,53.6,30.20,NNE,13,2.0,6.0,43,0.00,,---,0.00,VWS V14.00,2013-08-16 17:41:00,
2013-08-16 13:46:00,78.2,53.9,30.20,NNE,22,0.0,6.0,43,0.00,,---,0.00,VWS V14.00,2013-08-16 17:46:00,
2013-08-16 13:51:00,78.7,54.3,30.19,SSE,148,5.0,6.0,43,0.00,,---,0.00,VWS V14.00,2013-08-16 17:51:00,
2013-08-16 13:56:00,78.4,54.7,30.19,ESE,104,5.0,7.0,44,0.00,,---,0.00,VWS V14.00,2013-08-16 17:56:00,
2013-08-16 14:00:00,78.3,54.6,30.19,ESE,108,7.0,7.0,44,0.00,,---,0.00,VWS V14.00,2013-08-16 18:00:00,
2013-08-16 14:01:00,77.7,54.1,30.19,ESE,113,5.0,7.0,44,0.00,,---,0.00,VWS V14.00,2013-08-16 18:01:00,
2013-08-16 14:06:00,78.1,54.4,30.19,East,86,3.0,7.0,44,0.00,,---,0.00,VWS V14.00,2013-08-16 18:06:00,
2013-08-16 14:11:00,78.0,54.3,30.19,SE,136,0.0,7.0,44,0.00,,---,0.00,VWS V14.00,2013-08-16 18:11:00,
2013-08-16 14:16:00,78.2,54.5,30.19,SE,135,0.0,7.0,44,0.00,,---,0.00,VWS V14.00,2013-08-16 18:16:00,
2013-08-16 14:21:00,78.5,54.8,30.19,ENE,77,2.0,7.0,44,0.00,,---,0.00,VWS V14.00,2013-08-16 18:21:00,
2013-08-16 14:26:00,78.4,55.3,30.19,East,80,1.0,7.0,45,0.00,,---,0.00,VWS V14.00,2013-08-16 18:26:00,
2013-08-16 14:30:00,78.4,55.3,30.19,East,81,2.0,7.0,45,0.00,,---,0.00,VWS V14.00,2013-08-16 18:30:00,
2013-08-16 14:31:00,77.9,55.5,30.19,East,93,4.0,9.0,46,0.00,,---,0.00,VWS V14.00,2013-08-16 18:31:00,
2013-08-16 14:36:00,77.6,55.2,30.19,ESE,105,6.0,9.0,46,0.00,,---,0.00,VWS V14.00,2013-08-16 18:36:00,
2013-08-16 14:41:00,77.5,55.7,30.19,East,93,0.0,9.0,47,0.00,,---,0.00,VWS V14.00,2013-08-16 18:41:00,
2013-08-16 14:46:00,77.9,56.1,30.19,East,85,2.0,9.0,47,0.00,,---,0.00,VWS V14.00,2013-08-16 18:46:00,
2013-08-16 14:52:00,78.2,55.8,30.19,NNW,343,2.0,9.0,46,0.00,,---,0.00,VWS V14.00,2013-08-16 18:52:00,
2013-08-16 14:57:00,78.8,55.1,30.19,NNW,343,0.0,9.0,44,0.00,,---,0.00,VWS V14.00,2013-08-16 18:57:00,
2013-08-16 15:00:00,78.8,55.1,30.19,NNW,343,1.0,9.0,44,0.00,,---,0.00,VWS V14.00,2013-08-16 19:00:00,
2013-08-16 15:02:00,79.3,56.1,30.19,ENE,74,4.0,5.0,45,0.00,,---,0.00,VWS V14.00,2013-08-16 19:02:00,
2013-08-16 15:07:00,78.7,56.2,30.19,ESE,103,2.0,9.0,46,0.00,,---,0.00,VWS V14.00,2013-08-16 19:07:00,
2013-08-16 15:12:00,79.1,55.3,30.19,ENE,76,0.0,9.0,44,0.00,,---,0.00,VWS V14.00,2013-08-16 19:12:00,
2013-08-16 15:17:00,79.2,56.0,30.19,SE,132,6.0,9.0,45,0.00,,---,0.00,VWS V14.00,2013-08-16 19:17:00,
2013-08-16 15:22:00,79.0,55.9,30.19,SE,132,0.0,9.0,45,0.00,,---,0.00,VWS V14.00,2013-08-16 19:22:00,
2013-08-16 15:27:00,79.4,56.2,30.19,ESE,109,7.0,7.0,45,0.00,,---,0.00,VWS V14.00,2013-08-16 19:27:00,
2013-08-16 15:30:00,79.4,56.2,30.19,ESE,110,6.0,9.0,45,0.00,,---,0.00,VWS V14.00,2013-08-16 19:30:00,
2013-08-16 15:32:00,78.4,55.3,30.19,ESE,116,5.0,9.0,45,0.00,,---,0.00,VWS V14.00,2013-08-16 19:32:00,
2013-08-16 15:37:00,78.1,54.4,30.19,ESE,114,5.0,9.0,44,0.00,,---,0.00,VWS V14.00,2013-08-16 19:37:00,
2013-08-16 15:42:00,78.2,55.1,30.19,East,88,0.0,9.0,45,0.00,,---,0.00,VWS V14.00,2013-08-16 19:42:00,
2013-08-16 15:47:00,78.4,55.9,30.19,East,90,1.0,9.0,46,0.00,,---,0.00,VWS V14.00,2013-08-16 19:47:00,
2013-08-16 15:52:00,78.7,55.0,30.19,East,90,4.0,9.0,44,0.00,,---,0.00,VWS V14.00,2013-08-16 19:52:00,
2013-08-16 15:57:00,78.6,54.3,30.19,NNE,26,1.0,9.0,43,0.00,,---,0.00,VWS V14.00,2013-08-16 19:57:00,
2013-08-16 16:00:00,78.6,54.3,30.19,NNE,26,1.0,9.0,43,0.00,,---,0.00,VWS V14.00,2013-08-16 20:00:00,
2013-08-16 16:02:00,79.2,54.2,30.19,ENE,57,0.0,4.0,42,0.00,,---,0.00,VWS V14.00,2013-08-16 20:02:00,
2013-08-16 16:07:00,79.6,54.5,30.19,North,355,2.0,7.0,42,0.00,,---,0.00,VWS V14.00,2013-08-16 20:07:00,
2013-08-16 16:12:00,80.2,53.7,30.18,North,355,0.0,7.0,40,0.00,,---,0.00,VWS V14.00,2013-08-16 20:12:00,
2013-08-16 16:17:00,80.6,54.1,30.18,North,355,0.0,7.0,40,0.00,,---,0.00,VWS V14.00,2013-08-16 20:17:00,
2013-08-16 16:22:00,80.0,53.5,30.19,SE,144,4.0,8.0,40,0.00,,---,0.00,VWS V14.00,2013-08-16 20:22:00,
2013-08-16 16:27:00,79.3,53.6,30.19,ESE,113,4.0,7.0,41,0.00,,---,0.00,VWS V14.00,2013-08-16 20:27:00,
2013-08-16 16:30:00,79.3,53.6,30.19,ESE,113,7.0,8.0,41,0.00,,---,0.00,VWS V14.00,2013-08-16 20:30:00,
2013-08-16 16:32:00,78.7,53.0,30.19,South,169,1.0,8.0,41,0.00,,---,0.00,VWS V14.00,2013-08-16 20:32:00,
2013-08-16 16:37:00,78.9,52.5,30.19,NE,46,2.0,8.0,40,0.00,,---,0.00,VWS V14.00,2013-08-16 20:37:00,
2013-08-16 16:42:00,79.1,53.4,30.18,East,89,6.0,8.0,41,0.00,,---,0.00,VWS V14.00,2013-08-16 20:42:00,
2013-08-16 16:47:00,78.4,52.1,30.19,NNE,22,2.0,8.0,40,0.00,,---,0.00,VWS V14.00,2013-08-16 20:47:00,
2013-08-16 16:52:00,78.7,53.0,30.19,ESE,111,6.0,9.0,41,0.00,,---,0.00,VWS V14.00,2013-08-16 20:52:00,
2013-08-16 16:57:00,78.5,52.9,30.19,ENE,76,2.0,3.0,41,0.00,,---,0.00,VWS V14.00,2013-08-16 20:57:00,
2013-08-16 17:00:00,78.5,52.9,30.19,ENE,76,1.0,9.0,41,0.00,,---,0.00,VWS V14.00,2013-08-16 21:00:00,
2013-08-16 17:02:00,78.9,51.2,30.19,NNE,15,5.0,6.0,38,0.00,,---,0.00,VWS V14.00,2013-08-16 21:02:00,
2013-08-16 17:07:00,79.3,50.8,30.19,NNE,15,0.0,6.0,37,0.00,,---,0.00,VWS V14.00,2013-08-16 21:07:00,
2013-08-16 17:12:00,79.8,52.7,30.19,ESE,114,4.0,6.0,39,0.00,,---,0.00,VWS V14.00,2013-08-16 21:12:00,
2013-08-16 17:17:00,79.0,52.0,30.19,ESE,116,6.0,9.0,39,0.00,,---,0.00,VWS V14.00,2013-08-16 21:17:00,
2013-08-16 17:22:00,78.4,51.4,30.19,ESE,107,2.0,9.0,39,0.00,,---,0.00,VWS V14.00,2013-08-16 21:22:00,
2013-08-16 17:27:00,78.5,52.2,30.19,SSE,158,4.0,6.0,40,0.00,,---,0.00,VWS V14.00,2013-08-16 21:27:00,
2013-08-16 17:30:00,78.5,52.2,30.19,SSE,155,6.0,9.0,40,0.00,,---,0.00,VWS V14.00,2013-08-16 21:30:00,
2013-08-16 17:32:00,78.4,52.1,30.19,SSE,157,1.0,6.0,40,0.00,,---,0.00,VWS V14.00,2013-08-16 21:32:00,
2013-08-16 17:37:00,78.4,51.4,30.19,East,96,6.0,7.0,39,0.00,,---,0.00,VWS V14.00,2013-08-16 21:37:00,
2013-08-16 17:42:00,78.1,49.7,30.19,ESE,113,7.0,8.0,37,0.00,,---,0.00,VWS V14.00,2013-08-16 21:42:00,
2013-08-16 17:47:00,78.0,49.7,30.19,ESE,110,6.0,8.0,37,0.00,,---,0.00,VWS V14.00,2013-08-16 21:47:00,
2013-08-16 17:52:00,78.1,49.0,30.19,ESE,113,5.0,8.0,36,0.00,,---,0.00,VWS V14.00,2013-08-16 21:52:00,
2013-08-16 17:57:00,78.2,47.6,30.19,ESE,113,4.0,8.0,34,0.00,,---,0.00,VWS V14.00,2013-08-16 21:57:00,
2013-08-16 18:00:00,78.2,47.6,30.19,ESE,113,4.0,8.0,34,0.00,,---,0.00,VWS V14.00,2013-08-16 22:00:00,
2013-08-16 18:02:00,78.2,46.8,30.19,ESE,108,4.0,5.0,33,0.00,,---,0.00,VWS V14.00,2013-08-16 22:02:00,
2013-08-16 18:07:00,78.2,47.6,30.19,East,98,4.0,5.0,34,0.00,,---,0.00,VWS V14.00,2013-08-16 22:07:00,
2013-08-16 18:12:00,78.2,47.6,30.19,East,100,2.0,6.0,34,0.00,,---,0.00,VWS V14.00,2013-08-16 22:12:00,
2013-08-16 18:17:00,78.3,47.7,30.19,East,100,4.0,6.0,34,0.00,,---,0.00,VWS V14.00,2013-08-16 22:17:00,
2013-08-16 18:22:00,78.4,47.7,30.19,East,100,1.0,6.0,34,0.00,,---,0.00,VWS V14.00,2013-08-16 22:22:00,
2013-08-16 18:28:00,78.3,46.9,30.19,East,100,4.0,5.0,33,0.00,,---,0.00,VWS V14.00,2013-08-16 22:28:00,
2013-08-16 18:30:00,78.3,46.0,30.19,East,100,2.0,6.0,32,0.00,,---,0.00,VWS V14.00,2013-08-16 22:30:00,
2013-08-16 18:33:00,78.2,46.0,30.19,East,100,4.0,5.0,32,0.00,,---,0.00,VWS V14.00,2013-08-16 22:33:00,
2013-08-16 18:38:00,78.1,45.9,30.19,East,100,2.0,5.0,32,0.00,,---,0.00,VWS V14.00,2013-08-16 22:38:00,
2013-08-16 18:43:00,78.0,45.0,30.19,East,100,1.0,5.0,31,0.00,,---,0.00,VWS V14.00,2013-08-16 22:43:00,
2013-08-16 18:48:00,78.1,43.3,30.19,East,100,0.0,5.0,29,0.00,,---,0.00,VWS V14.00,2013-08-16 22:48:00,
2013-08-16 18:53:00,78.1,43.3,30.19,East,99,1.0,5.0,29,0.00,,---,0.00,VWS V14.00,2013-08-16 22:53:00,
2013-08-16 18:58:00,78.1,41.4,30.19,East,100,1.0,4.0,27,0.00,,---,0.00,VWS V14.00,2013-08-16 22:58:00,
2013-08-16 19:00:00,78.1,43.3,30.19,East,100,2.0,5.0,29,0.00,,---,0.00,VWS V14.00,2013-08-16 23:00:00,
2013-08-16 19:03:00,78.1,42.4,30.19,East,99,2.0,5.0,28,0.00,,---,0.00,VWS V14.00,2013-08-16 23:03:00,
2013-08-16 19:08:00,78.1,42.4,30.19,East,100,0.0,5.0,28,0.00,,---,0.00,VWS V14.00,2013-08-16 23:08:00,
2013-08-16 19:13:00,78.0,42.3,30.19,East,101,0.0,5.0,28,0.00,,---,0.00,VWS V14.00,2013-08-16 23:13:00,
2013-08-16 19:18:00,78.0,42.3,30.19,East,100,0.0,5.0,28,0.00,,---,0.00,VWS V14.00,2013-08-16 23:18:00,
2013-08-16 19:23:00,77.9,42.2,30.19,East,100,0.0,5.0,28,0.00,,---,0.00,VWS V14.00,2013-08-16 23:23:00,
2013-08-16 19:28:00,77.9,40.3,30.19,East,100,0.0,0.0,26,0.00,,---,0.00,VWS V14.00,2013-08-16 23:28:00,
2013-08-16 19:30:00,77.9,41.3,30.19,East,101,0.0,5.0,27,0.00,,---,0.00,VWS V14.00,2013-08-16 23:30:00,
2013-08-16 19:33:00,77.9,40.3,30.19,East,100,0.0,1.0,26,0.00,,---,0.00,VWS V14.00,2013-08-16 23:33:00,
2013-08-16 19:38:00,77.7,41.1,30.19,East,100,0.0,1.0,27,0.00,,---,0.00,VWS V14.00,2013-08-16 23:38:00,
2013-08-16 19:43:00,77.4,45.3,30.19,East,100,0.0,1.0,32,0.00,,---,0.00,VWS V14.00,2013-08-16 23:43:00,
2013-08-16 19:48:00,77.1,46.6,30.19,East,99,0.0,1.0,34,0.00,,---,0.00,VWS V14.00,2013-08-16 23:48:00,
2013-08-16 19:53:00,76.5,47.6,30.19,East,100,0.0,1.0,36,0.00,,---,0.00,VWS V14.00,2013-08-16 23:53:00,
2013-08-16 19:58:00,75.9,49.2,30.19,East,99,0.0,0.0,39,0.00,,---,0.00,VWS V14.00,2013-08-16 23:58:00,
2013-08-16 20:00:00,76.1,48.7,30.19,East,100,0.0,1.0,38,0.00,,---,0.00,VWS V14.00,2013-08-17 00:00:00,
2013-08-16 20:03:00,75.4,49.4,30.19,East,100,0.0,0.0,40,0.00,,---,0.00,VWS V14.00,2013-08-17 00:03:00,
2013-08-16 20:08:00,74.9,48.3,30.19,East,101,0.0,0.0,39,0.00,,---,0.00,VWS V14.00,2013-08-17 00:08:00,
2013-08-16 20:13:00,74.5,49.3,30.19,East,100,0.0,0.0,41,0.00,,---,0.00,VWS V14.00,2013-08-17 00:13:00,
2013-08-16 20:18:00,74.0,49.5,30.19,East,100,0.0,0.0,42,0.00,,---,0.00,VWS V14.00,2013-08-17 00:18:00,
2013-08-16 20:23:00,73.3,51.3,30.19,East,100,0.0,1.0,46,0.00,,---,0.00,VWS V14.00,2013-08-17 00:23:00,
2013-08-16 20:28:00,72.6,50.7,30.19,East,100,0.0,0.0,46,0.00,,---,0.00,VWS V14.00,2013-08-17 00:28:00,
2013-08-16 20:30:00,72.8,51.4,30.19,East,101,0.0,1.0,47,0.00,,---,0.00,VWS V14.00,2013-08-17 00:30:00,
2013-08-16 20:33:00,71.9,51.2,30.19,East,100,0.0,0.0,48,0.00,,---,0.00,VWS V14.00,2013-08-17 00:33:00,
2013-08-16 20:38:00,71.2,51.1,30.19,East,100,0.0,0.0,49,0.00,,---,0.00,VWS V14.00,2013-08-17 00:38:00,
2013-08-16 20:43:00,70.6,51.6,30.19,East,100,0.0,0.0,51,0.00,,---,0.00,VWS V14.00,2013-08-17 00:43:00,
2013-08-16 20:48:00,70.0,52.6,30.19,East,100,0.0,0.0,54,0.00,,---,0.00,VWS V14.00,2013-08-17 00:48:00,
2013-08-16 20:53:00,69.3,52.0,30.19,East,100,0.0,0.0,54,0.00,,---,0.00,VWS V14.00,2013-08-17 00:53:00,
2013-08-16 20:58:00,68.8,52.0,30.19,East,100,0.0,0.0,55,0.00,,---,0.00,VWS V14.00,2013-08-17 00:58:00,
2013-08-16 21:00:00,68.9,52.1,30.19,East,100,0.0,0.0,55,0.00,,---,0.00,VWS V14.00,2013-08-17 01:00:00,
2013-08-16 21:03:00,68.5,52.2,30.19,East,100,0.0,0.0,56,0.00,,---,0.00,VWS V14.00,2013-08-17 01:03:00,
2013-08-16 21:08:00,68.1,52.3,30.20,East,100,0.0,0.0,57,0.00,,---,0.00,VWS V14.00,2013-08-17 01:08:00,
2013-08-16 21:13:00,67.8,53.0,30.20,East,100,0.0,0.0,59,0.00,,---,0.00,VWS V14.00,2013-08-17 01:13:00,
2013-08-16 21:18:00,67.3,53.0,30.20,East,100,0.0,0.0,60,0.00,,---,0.00,VWS V14.00,2013-08-17 01:18:00,
2013-08-16 21:23:00,67.0,53.6,30.20,East,100,0.0,0.0,62,0.00,,---,0.00,VWS V14.00,2013-08-17 01:23:00,
2013-08-16 21:28:00,66.7,53.7,30.20,East,100,0.0,1.0,63,0.00,,---,0.00,VWS V14.00,2013-08-17 01:28:00,
2013-08-16 21:30:00,66.8,53.8,30.20,East,100,1.0,1.0,63,0.00,,---,0.00,VWS V14.00,2013-08-17 01:30:00,
2013-08-16 21:33:00,66.5,54.0,30.20,East,100,0.0,1.0,64,0.00,,---,0.00,VWS V14.00,2013-08-17 01:33:00,
2013-08-16 21:38:00,66.5,54.0,30.20,East,100,0.0,1.0,64,0.00,,---,0.00,VWS V14.00,2013-08-17 01:38:00,
2013-08-16 21:43:00,66.6,54.5,30.21,East,100,0.0,1.0,65,0.00,,---,0.00,VWS V14.00,2013-08-17 01:43:00,
2013-08-16 21:48:00,66.5,54.8,30.21,East,100,0.0,1.0,66,0.00,,---,0.00,VWS V14.00,2013-08-17 01:48:00,
2013-08-16 21:53:00,66.2,54.9,30.21,East,100,0.0,1.0,67,0.00,,---,0.00,VWS V14.00,2013-08-17 01:53:00,
2013-08-16 21:58:00,65.8,54.5,30.21,East,100,0.0,0.0,67,0.00,,---,0.00,VWS V14.00,2013-08-17 01:58:00,
2013-08-16 22:00:00,65.9,54.7,30.21,East,100,0.0,1.0,67,0.00,,---,0.00,VWS V14.00,2013-08-17 02:00:00,
2013-08-16 22:03:00,65.3,54.1,30.21,East,100,0.0,0.0,67,0.00,,---,0.00,VWS V14.00,2013-08-17 02:03:00,
2013-08-16 22:08:00,64.8,54.4,30.22,East,100,0.0,0.0,69,0.00,,---,0.00,VWS V14.00,2013-08-17 02:08:00,
2013-08-16 22:13:00,64.2,54.2,30.22,East,100,0.0,0.0,70,0.00,,---,0.00,VWS V14.00,2013-08-17 02:13:00,
2013-08-16 22:18:00,63.9,53.9,30.22,East,100,0.0,0.0,70,0.00,,---,0.00,VWS V14.00,2013-08-17 02:18:00,
2013-08-16 22:23:00,63.5,53.9,30.22,East,100,0.0,0.0,71,0.00,,---,0.00,VWS V14.00,2013-08-17 02:23:00,
2013-08-16 22:28:00,63.1,54.3,30.22,East,100,0.0,0.0,73,0.00,,---,0.00,VWS V14.00,2013-08-17 02:28:00,
2013-08-16 22:30:00,63.2,54.0,30.22,East,100,0.0,0.0,72,0.00,,---,0.00,VWS V14.00,2013-08-17 02:30:00,
2013-08-16 22:33:00,62.9,54.1,30.22,East,100,0.0,0.0,73,0.00,,---,0.00,VWS V14.00,2013-08-17 02:33:00,
2013-08-16 22:38:00,62.9,54.1,30.22,East,100,0.0,1.0,73,0.00,,---,0.00,VWS V14.00,2013-08-17 02:38:00,
2013-08-16 22:43:00,63.0,54.2,30.22,East,100,0.0,1.0,73,0.00,,---,0.00,VWS V14.00,2013-08-17 02:43:00,
2013-08-16 22:48:00,63.0,54.2,30.22,East,100,0.0,1.0,73,0.00,,---,0.00,VWS V14.00,2013-08-17 02:48:00,
2013-08-16 22:53:00,62.9,54.1,30.22,East,100,0.0,1.0,73,0.00,,---,0.00,VWS V14.00,2013-08-17 02:53:00,
2013-08-16 22:58:00,62.7,54.3,30.22,East,100,0.0,0.0,74,0.00,,---,0.00,VWS V14.00,2013-08-17 02:58:00,
2013-08-16 23:00:00,62.8,54.0,30.22,East,100,0.0,1.0,73,0.00,,---,0.00,VWS V14.00,2013-08-17 03:00:00,
2013-08-16 23:03:00,62.5,54.1,30.22,East,100,0.0,0.0,74,0.00,,---,0.00,VWS V14.00,2013-08-17 03:03:00,
2013-08-16 23:08:00,62.2,54.2,30.22,East,100,0.0,0.0,75,0.00,,---,0.00,VWS V14.00,2013-08-17 03:08:00,
2013-08-16 23:13:00,62.0,54.4,30.23,East,100,0.0,0.0,76,0.00,,---,0.00,VWS V14.00,2013-08-17 03:13:00,
2013-08-16 23:18:00,61.8,54.2,30.22,East,100,0.0,0.0,76,0.00,,---,0.00,VWS V14.00,2013-08-17 03:18:00,
2013-08-16 23:23:00,61.7,54.4,30.23,East,100,0.0,0.0,77,0.00,,---,0.00,VWS V14.00,2013-08-17 03:23:00,
2013-08-16 23:28:00,61.4,54.5,30.23,East,100,0.0,0.0,78,0.00,,---,0.00,VWS V14.00,2013-08-17 03:28:00,
2013-08-16 23:30:00,61.5,54.2,30.23,East,100,0.0,0.0,77,0.00,,---,0.00,VWS V14.00,2013-08-17 03:30:00,
2013-08-16 23:33:00,61.2,54.3,30.23,East,100,0.0,0.0,78,0.00,,---,0.00,VWS V14.00,2013-08-17 03:33:00,
2013-08-16 23:39:00,60.9,54.3,30.23,East,101,0.0,0.0,79,0.00,,---,0.00,VWS V14.00,2013-08-17 03:39:00,
2013-08-16 23:44:00,60.7,54.2,30.23,East,100,0.0,0.0,79,0.00,,---,0.00,VWS V14.00,2013-08-17 03:44:00,
2013-08-16 23:49:00,60.3,54.1,30.23,East,100,0.0,0.0,80,0.00,,---,0.00,VWS V14.00,2013-08-17 03:49:00,
2013-08-16 23:54:00,60.0,54.2,30.23,East,100,0.0,0.0,81,0.00,,---,0.00,VWS V14.00,2013-08-17 03:54:00,
2013-08-16 23:59:00,59.9,54.4,30.23,East,100,0.0,0.0,82,0.00,,---,0.00,VWS V14.00,2013-08-17 03:59:00,